This demonstration page uses our WeatherBlox Daily Observations layout. Learn more.

Left ArrowRight Arrow

41.86663, -103.66717

Hourly Observations for April 20, 2017

Temp ( °F °C ) Dew Point ( °F °C ) Humidity (%) Winds ( mph kmh ) Pressure ( in mb ) Visibility ( mi km ) Precip ( " mm )
12:53 am 00:53 Clear 37 2.8 31 -0.6 79 79 WNW 5 7 30.16 1021 10 16.0934 N/A
1:53 am 01:53 Clear 37 2.8 30 -1.1 76 76 NW 5 7 30.17 1022 10 16.0934 N/A
2:53 am 02:53 Clear 34 1.1 29 -1.7 82 82 NW 7 11 30.17 1022 10 16.0934 N/A
3:53 am 03:53 Clear 32 undefined 28 -2.2 85 85 NW 7 11 30.19 1022 10 16.0934 N/A
4:53 am 04:53 Clear 30 -1.1 27 -2.8 88 88 NW 6 9 30.2 1023 10 16.0934 N/A
5:53 am 05:53 Clear 34 1.1 30 -1.1 85 85 N 7 11 30.19 1022 10 16.0934 N/A
6:53 am 06:53 Sunny 35 1.7 31 -0.6 85 85 W 7 11 30.21 1023 10 16.0934 N/A
7:53 am 07:53 Sunny 42 5.6 34 1.1 73 73 WNW 8 13 30.21 1023 10 16.0934 N/A
8:53 am 08:53 Sunny 48 8.9 34 1.1 58 58 WNW 6 9 30.2 1023 10 16.0934 N/A
9:53 am 09:53 Sunny 54 12.2 35 1.7 49 49 WNW 7 11 30.18 1022 10 16.0934 N/A
10:53 am 10:53 Sunny 59 15 26 -3.3 28 28 VRB 3 6 30.15 1021 10 16.0934 N/A
11:53 am 11:53 Sunny 59 15 23 -5 25 25 SSE 7 11 30.14 1021 10 16.0934 N/A
12:53 pm 12:53 Sunny 63 17.2 22 -5.6 21 21 VRB 7 11 30.11 1020 10 16.0934 N/A
1:53 pm 13:53 Sunny 63 17.2 20 -6.7 19 19 VRB 6 9 30.08 1019 10 16.0934 N/A
2:53 pm 14:53 Sunny 63 17.2 17 -8.3 17 17 N N/A 30.06 1018 10 16.0934 N/A
3:53 pm 15:53 Sunny 65 18.3 12 -11.1 13 13 SSE 9 15 30.04 1017 10 16.0934 N/A
4:53 pm 16:53 Sunny 63 17.2 13 -10.6 14 14 SSE 12 19 30.03 1017 10 16.0934 N/A
5:53 pm 17:53 Sunny 62 16.7 16 -8.9 17 17 ESE 14 22 30.02 1017 10 16.0934 N/A
6:53 pm 18:53 Sunny 61 16.1 17 -8.3 18 18 ESE 10 17 30.01 1016 10 16.0934 N/A
7:53 pm 19:53 Clear 58 14.4 17 -8.3 20 20 E 14 22 30.01 1016 10 16.0934 N/A
8:53 pm 20:53 Partly Cloudy 56 13.3 19 -7.2 24 24 ESE 10 17 30.03 1017 10 16.0934 N/A
9:53 pm 21:53 Cloudy 54 12.2 21 -6.1 28 28 SE 12 19 30.03 1017 10 16.0934 N/A
10:53 pm 22:53 Mostly Cloudy 54 12.2 23 -5 30 30 ESE 10 17 29.99 1016 10 16.0934 N/A
11:53 pm 23:53 Cloudy 52 11.1 22 -5.6 31 31 E 10 17 30.01 1016 10 16.0934 N/A

Powered by AerisWeather